Location: Alexandria
(38.8050°N, 77.0470°W)
Time: 23:35:12
(UTC-05:00)

N. Korean satellite - Pass Details

Date: 18 November 2017
Orbit: 460 x 515 km, 97.2° (Epoch: 17 November)

Event Time Altitude Azimuth Distance (km) Brightness Sun altitude
Rises 18:45:15 0° 191° (SSW) 2,477 10.4 -21.9°
Reaches altitude 10° 18:47:29 10° 204° (SSW) 1,612 9.6 -22.3°
Maximum altitude 18:50:28 27° 264° (W) 938 8.7 -22.9°
Drops below altitude 10° 18:53:30 10° 324° (NW) 1,644 9.6 -23.5°
Sets 18:55:49 0° 336° (NNW) 2,537 10.4 -24.0°
